SA5VCC-15 Weather Reports


time (UTC)temp
C
wind
direction
speed
KPH
gust
KPH
rain 1hr
cm
rain 24hr
cm
rain mn
cm
humidity
%
barometer
mb
20260504120226 13 0.0 0.0 0.00 0.00 0.00 50 996.4
20260504080805 13 0.0 0.0 0.00 0.00 0.00 54 998.2
20260504043508 6 0.0 0.0 0.00 0.00 0.00 79 1000.2
20260504041356 6 0.0 0.0 0.00 0.00 0.00 80 1000.5
20260504035233 6 0.0 0.0 0.00 0.00 0.00 81 1000.7
20260504033121 6 0.0 0.0 0.00 0.00 0.00 81 1000.9
20260504031009 6 0.0 0.0 0.00 0.00 0.00 81 1001.1
20260504024826 6 0.0 0.0 0.00 0.00 0.00 81 1001.3
20260504022702 5 0.0 0.0 0.00 0.00 0.00 81 1001.6
20260504020550 5 0.0 0.0 0.00 0.00 0.00 81 1001.8
20260504012314 5 0.0 0.0 0.00 0.00 0.00 80 1002.3
20260504010202 5 0.0 0.0 0.00 0.00 0.00 80 1002.5
20260504004040 5 0.0 0.0 0.00 0.00 0.00 80 1002.8
20260504001917 5 0.0 0.0 0.00 0.00 0.00 79 1002.8
20260503235754 5 0.0 0.0 0.00 0.00 0.00 79 1002.9
20260503233642 4 0.0 0.0 0.00 0.00 0.00 80 1003.3
20260503231530 3 0.0 0.0 0.00 0.00 0.00 82 1003.3
20260503225405 3 0.0 0.0 0.00 0.00 0.00 80 1003.5
20260503221130 5 0.0 0.0 0.00 0.00 0.00 76 1003.6
20260503215018 5 0.0 0.0 0.00 0.00 0.00 74 1003.8
20260503212906 6 0.0 0.0 0.00 0.00 0.00 72 1004.2
20260503210743 5 0.0 0.0 0.00 0.00 0.00 73 1004.1
20260503204621 5 0.0 0.0 0.00 0.00 0.00 73 1004.3
20260503202457 5 0.0 0.0 0.00 0.00 0.00 71 1004.3
20260503200345 6 0.0 0.0 0.00 0.00 0.00 67 1004.5
20260503194223 7 0.0 0.0 0.00 0.00 0.00 64 1004.7
20260503192111 7 0.0 0.0 0.00 0.00 0.00 63 1004.9
20260503185959 7 0.0 0.0 0.00 0.00 0.00 61 1005.0
20260503183847 7 0.0 0.0 0.00 0.00 0.00 59 1005.0
20260503181735 16 0.0 0.0 0.00 0.00 0.00 37 1004.7
20260503180520 20 0.0 0.0 0.00 0.00 0.00 33 1004.7
20260503180408 19 0.0 0.0 0.00 0.00 0.00 33 1004.6
20260503180339 19 0.0 0.0 0.00 0.00 0.00 34 1004.6
20260503180255 19 0.0 0.0 0.00 0.00 0.00 34 1004.6
20260503180230 -17 0.0 0.0 0.00 0.00 0.00
20260503180054 18 0.0 0.0 0.00 0.00 0.00 34 1004.6
20260503180041 -17 0.0 0.0 0.00 0.00 0.00
20260503175831 18 0.0 0.0 0.00 0.00 0.00 34 1004.6
20260503175313 18 0.0 0.0 0.00 0.00 0.00 34 1004.6
20260503175250 18 0.0 0.0 0.00 0.00 0.00 36 1004.6
20260503174609 16 0.0 0.0 0.00 0.00 0.00 38 1004.7
20260503174529 16 0.0 0.0 0.00 0.00 0.00 39 1004.7
20260503150438 12 0.0 0.0 0.00 0.00 0.00 43 1005.5